Tracking 29762 objects as of 8-Oct-2024
HD Live streaming from Space Station
objects crossing your sky now

THORAD AGENA D DEB

Track THORAD AGENA D DEB now!
10-day predictions


NORAD ID: 4710
Int'l Code: 1970-025BY
Perigee: 1,055.8 km
Apogee: 1,061.8 km
Inclination: 100.2 °
Period: 106.2 minutes
Semi major axis: 7429 km
RCS: 0.052 m2 (small)
Launch date: April 8, 1970
Source: United States (US)
Launch site: AIR FORCE WESTERN TEST RANGE (AFWTR)

Note: This is SATELLITE DEBRIS
Your satellite tracking list
Your tracking list is empty




NASA's NSSDC Master Catalog

Two Line Element Set (TLE):
1 04710U 70025BY  24280.73589628  .00000726  00000-0  11129-2 0  9991
2 04710 100.1580 263.6390 0003986 263.2208 277.5461 13.55617150689725
Source of the keplerian elements: AFSPC